Location: Unnamed
(53.2784°N, 6.2666°W)
Time: 21:15:32
(UTC+00:00)

ISS - Visible Passes

Search period start: 01 December 2021 00:00
Search period end: 11 December 2021 00:00
Orbit: 417 x 423 km, 51.6° (Epoch: 01 December)

Date Brightness Start Highest point End Pass type
(mag) Time Alt. Az. Time Alt. Az. Time Alt. Az.
01 Dec -3.5 17:41:51 10° W 17:45:13 65° S 17:47:25 20° ESE visible
01 Dec -1.3 19:18:42 10° W 19:20:24 23° WSW 19:20:24 23° WSW visible
02 Dec -3.4 16:54:40 10° W 16:58:04 68° S 17:01:28 10° E visible
02 Dec -2.8 18:31:28 10° W 18:34:42 41° SSW 18:35:15 37° S visible
03 Dec -3.0 17:44:16 10° W 17:47:34 50° SSW 17:50:10 15° ESE visible
03 Dec -1.0 19:21:30 10° W 19:23:10 17° SW 19:23:10 17° SW visible
04 Dec -3.2 16:57:03 10° W 17:00:25 59° S 17:03:46 10° ESE visible
04 Dec -1.7 18:34:03 10° W 18:36:52 24° SSW 18:38:14 19° S visible
05 Dec -2.0 17:46:43 10° W 17:49:47 32° SSW 17:52:51 10° SE visible
06 Dec -2.4 16:59:27 10° W 17:02:40 40° SSW 17:05:53 10° SE visible
06 Dec -0.7 18:37:14 10° WSW 18:38:50 13° SW 18:40:27 10° S visible
07 Dec -0.9 17:49:27 10° W 17:51:50 18° SW 17:54:12 10° S visible
08 Dec -1.2 17:01:57 10° W 17:04:46 24° SSW 17:07:33 10° SSE visible
10 Dec -0.3 17:05:06 10° WSW 17:06:39 13° SW 17:08:12 10° SSW visible
